Location: Long Sault Conservation Area
(44.0496°N, 78.7419°W)
Time: 03:58:57
(UTC-05:00)

Daily predictions for brighter satellites

Satellite Brightness Start Highest point End
(mag) Time Altitude Azimuth Time Altitude Azimuth Time Altitude Azimuth
Cosmos 2369 Rocket 3.8 03:29:05 31° NE 03:29:05 31° NE 03:32:11 10° NE
Cosmos 2056 Rocket 4.5 03:59:39 44° ENE 03:59:39 44° ENE 04:03:29 10° NNE
Okean O Rocket 3.9 03:56:27 10° NNE 03:57:38 18° NNE 03:57:38 18° NNE
ATLAS 5 CENTAUR R/B 2.9 04:04:33 43° ENE 04:04:33 43° ENE 04:08:13 10° NE
Cosmos 1943 Rocket 2.6 04:10:09 57° ESE 04:10:11 57° ESE 04:15:38 10° NNE
Cosmos 2263 4.3 04:15:05 67° NNE 04:15:05 67° NNE 04:19:56 10° NNE
Lacrosse 5 rocket 3.9 04:16:57 13° NNE 04:16:57 13° NNE 04:18:13 10° NE
CZ-4B R/B 3.3 04:11:03 10° NNE 04:16:41 77° ESE 04:16:48 77° ESE
Cosmos 2266 Rocket 4.5 04:12:25 10° N 04:16:39 46° NNW 04:16:39 46° NNW
Lacrosse 5 2.3 04:19:12 59° E 04:19:12 59° E 04:23:38 10° NE
USA 234 3.5 04:17:38 10° NE 04:24:05 60° SE 04:26:04 43° S
ADEOS Rocket 4.3 04:19:22 10° N 04:23:31 29° NNW 04:23:31 29° NNW
Thor Agena Rocket 4.3 04:28:24 10° SE 04:33:26 51° ENE 04:38:25 10° N
Cosmos 1452 Rocket 4.1 04:36:33 23° S 04:39:40 54° ESE 04:44:50 10° NNE
ADEOS II 1.9 04:35:27 10° N 04:40:42 72° WNW 04:40:43 72° WNW
Cosmos 1782 Rocket 4.0 04:44:37 10° N 04:49:05 62° E 04:53:28 10° SSE
PAYLOAD B 4.3 04:47:05 10° N 04:52:27 51° WNW 04:52:35 51° WNW
Meteor 1-26 Rocket 4.3 04:47:27 10° S 04:53:08 78° E 04:58:45 10° NNE
Cosmos 407 Rocket 3.6 04:54:00 53° SW 04:54:00 53° SW 04:58:36 10° S
Okean-O 2.7 04:52:25 10° NNE 04:56:53 76° ESE 04:59:52 20° S
Cosmos 676 Rocket 3.9 04:53:06 10° NNW 04:58:24 72° WSW 05:03:42 10° S
Tiangong 1 2.6 05:00:17 30° ESE 05:00:17 30° ESE 05:02:13 10° E
CZ-4B DEB 4.4 04:56:36 10° N 05:01:53 47° WNW 05:02:35 44° W
Cosmos 1244 Rocket 4.3 04:57:08 10° N 05:03:23 76° W 05:09:31 10° S
Meteor 1-31 Rocket 2.6 05:01:33 10° NNE 05:05:28 87° WNW 05:06:42 42° SSW
Cosmos 2219 3.4 05:01:00 10° NNW 05:06:43 72° ENE 05:12:20 10° SSE
CZ-4C R/B 2.3 05:06:47 22° SSW 05:10:18 74° ESE 05:16:17 10° NE
Cosmos 2369 Rocket 3.2 05:10:53 27° NW 05:11:01 28° NW 05:15:50 10° N
Cosmos 1140 Rocket 3.4 05:06:27 10° NNW 05:11:43 88° WSW 05:16:58 10° SSE
Cosmos 2227 Rocket 4.1 05:07:01 10° N 05:11:55 29° NE 05:16:48 10° ESE
Cosmos 1656 Rocket 3.7 05:09:36 13° SSW 05:14:41 88° ESE 05:20:24 10° NNE
Okean 2 Rocket 3.0 05:10:16 10° N 05:14:41 86° E 05:19:05 10° S
Meteor PRIRODA 4.4 05:13:38 10° N 05:16:19 36° NW 05:16:19 36° NW
SL-08 R/B 4.5 05:10:56 10° N 05:17:17 89° E 05:23:38 10° S
Cosmos 614 Rocket 4.0 05:13:21 10° NNW 05:18:28 81° ENE 05:23:36 10° SSE
SJ-6F 4.3 05:19:07 10° N 05:23:17 83° WNW 05:27:24 10° SSW
Cosmos 1703 Rocket 3.7 05:22:54 30° SW 05:24:40 47° WNW 05:28:55 10° N
GEOS 3 Rocket 4.4 05:22:05 10° S 05:26:21 27° WSW 05:26:26 27° WSW
Feng Yun 1-1 Rocket 4.3 05:20:59 10° N 05:26:49 67° WNW 05:32:41 10° SSW
S3M 3.9 05:24:50 10° S 05:31:11 81° W 05:37:30 10° N
Cosmos 546 4.5 05:31:43 31° WNW 05:33:25 82° SSW 05:37:15 10° ESE
Cosmos 2151 Rocket 4.0 05:29:32 10° N 05:34:04 66° E 05:38:30 10° SSE
Okean O Rocket 3.7 05:34:28 10° NNW 05:35:07 12° NW 05:35:07 12° NW
Cosmos 1553 Rocket 3.9 05:32:18 10° SSW 05:38:27 69° W 05:44:46 10° N
Cosmos 1850 Rocket 3.9 05:35:27 10° NNW 05:40:49 78° WSW 05:46:07 10° SSE
ATLAS CENTAUR R/B 4.5 05:37:26 21° W 05:40:59 28° SW 05:53:59 10° S
ERS-2 3.9 05:38:26 10° NNW 05:40:04 17° NW 05:40:04 17° NW
CZ-4B R/B 4.5 05:39:46 10° N 05:43:23 34° WNW 05:46:30 14° SW
Meteor 2-10 Rocket 3.9 05:40:28 10° SW 05:45:04 37° WNW 05:49:47 10° N
Cosmos 1633 3.8 05:42:06 10° N 05:45:36 44° ENE 05:49:04 10° SSE
ATLAS 5 CENTAUR R/B 3.1 05:46:08 19° WNW 05:48:17 25° NW 05:52:40 10° NNE
Meteor 2-11 Rocket 4.5 05:42:33 10° S 05:48:40 88° E 05:54:51 10° N
Radarsat Rocket 4.3 05:42:50 10° NNE 05:50:13 81° WNW 05:56:41 10° SSW
COSMO-SKYMED 1 2.6 05:46:38 10° S 05:50:52 53° W 05:55:09 10° NNW
Ariane Rocket 3.5 05:46:42 10° NNE 05:51:47 66° ESE 05:56:49 10° S
Cosmos 1943 Rocket 3.3 05:51:42 18° W 05:54:19 24° NW 05:58:49 10° N
IDEFIX/ARIANE 42P 4.2 05:50:18 10° NNE 05:55:11 39° E 06:00:01 10° SSE
NOAA 6 4.2 05:50:21 10° N 05:55:22 52° WNW 06:00:20 10° SW
Cosmos 1420 Rocket 4.1 05:51:16 10° SW 05:56:18 53° WNW 06:01:24 10° NNE
Lacrosse 5 rocket 2.1 05:52:52 10° NW 05:56:20 42° NE 05:59:46 10° ESE
Cosmos 2221 Rocket 4.5 05:53:26 10° SW 05:57:24 29° WNW 06:01:24 10° NNW
Meteor 1-28 Rocket 3.3 05:56:50 10° S 06:00:29 53° W 06:04:10 10° NNW
Meteor 1-27 Rocket 4.3 05:54:58 10° S 06:00:40 66° E 06:06:31 10° NNE
Lacrosse 5 2.8 05:58:26 16° W 06:01:54 33° NNW 06:06:30 10° NE
Meteor 1-20 Rocket 4.5 05:57:53 10° NNW 06:03:21 47° W 06:08:39 10° SSW
USA 234 3.6 06:00:45 10° NE 06:07:01 50° NNW 06:13:15 10° W
Cosmos 1709 Rocket 4.0 06:02:01 10° N 06:08:10 87° E 06:14:18 10° S
CSL-04 Rocket 3.8 06:06:59 10° NNE 06:12:24 85° ESE 06:17:51 10° SSW
Cosmos 2082 4.1 06:06:51 10° NNW 06:12:32 68° ENE 06:18:08 10° SE
Okean 1-7 4.2 06:10:16 10° WSW 06:13:36 22° WNW 06:16:57 10° NNW
Abrixas 3.6 06:12:25 11° WNW 06:14:51 32° N 06:17:31 10° ENE
Cosmos 1782 3.4 06:12:47 10° SW 06:16:25 35° WNW 06:20:06 10° N
ADEOS II 3.9 06:18:06 10° NW 06:19:29 11° NW 06:20:52 10° WNW
Cosmos 1602 3.7 06:17:08 10° NNW 06:21:05 70° W 06:25:01 10° S
YAOGAN 1 4.3 06:17:29 10° NNE 06:21:34 39° E 06:25:38 10° SSE
Cosmos 2315 Rocket 4.1 06:16:36 10° S 06:22:59 85° W 06:29:23 10° N
Cosmos 1606 3.3 06:20:54 10° SW 06:24:29 36° WNW 06:28:07 10° N
Cosmos 2369 4.1 06:22:17 10° SSW 06:27:52 70° ESE 06:33:31 10° NNE
Cosmos 1110 Rocket 4.0 06:23:58 10° SSW 06:29:08 88° WNW 06:34:22 10° NNE
